RH
17 17 18 19 19 20 21 22 24 25 26 29 32 34 35 38 42 46 48 47 41 39 44 46 46 47 44 37 32 33 34 34 36 36 35 39 48 54 51 43 35 33
20 17 16 17 18 19 19 20 21 22 23 25 28 30 31 32 36 40 46 50 46 39 39 42 45 46 46 43 35 29 28 29 32 34 33 35 41 49 52 48 39 37
27 23 19 17 17 18 19 19 20 22 22 22 24 27 28 29 31 34 40 47 49 44 38 38 42 42 42 45 44 37 29 25 26 31 32 31 35 43 48 46 40 39
29 28 25 21 19 18 19 19 20 21 22 22 23 24 25 25 28 30 34 40 44 45 40 37 39 40 38 41 44 44 38 30 25 27 31 30 30 36 43 47 44 40
29 29 28 27 25 22 21 20 20 21 22 22 23 23 23 23 25 28 31 34 37 41 41 39 40 40 40 41 42 42 42 39 33 29 29 30 29 30 35 40 42 43
29 29 28 29 29 27 26 24 22 21 21 22 22 23 23 21 22 25 29 32 35 37 38 38 39 39 39 42 43 40 38 38 40 38 34 30 28 26 28 32 35 39
28 28 27 29 30 29 28 28 27 24 23 23 21 21 22 21 20 21 26 31 36 37 36 34 35 36 36 38 40 39 36 34 36 42 43 39 34 28 27 30 32 33
26 27 27 27 28 29 28 28 29 28 26 25 22 19 20 21 20 19 21 27 33 38 38 34 32 32 33 34 37 37 34 31 29 32 37 40 40 37 32 30 30 30
25 26 26 26 26 27 27 27 28 28 27 27 23 19 18 18 18 18 19 21 26 32 36 36 33 32 30 29 33 35 32 28 25 22 24 28 33 36 35 33 30 28
23 24 24 24 25 25 25 26 28 29 29 28 26 22 18 17 17 18 19 20 20 23 29 31 31 32 32 27 27 30 28 25 24 20 19 20 22 26 29 32 32 30
19 20 20 21 22 22 22 24 27 28 29 29 29 25 19 16 17 18 19 18 17 18 22 25 25 25 28 27 24 25 24 23 21 19 16 15 16 17 20 24 28 30
14 15 16 17 19 19 19 21 23 25 27 27 27 27 23 18 16 18 20 18 16 16 17 21 22 21 22 24 23 22 21 20 19 16 13 12 12 12 13 16 20 24
13 12 13 14 16 18 17 18 20 21 23 24 25 28 28 22 16 16 20 21 19 16 15 17 19 19 19 21 22 19 18 19 18 14 10 9 9 9 9 10 12 16
18 14 13 12 13 16 15 16 17 17 18 20 22 26 30 28 21 16 17 20 21 19 17 16 16 16 16 17 19 17 15 17 16 11 7 7 7 7 7 7 7 9
26 21 17 15 14 14 15 14 14 15 15 15 18 23 29 31 28 22 19 19 19 19 18 16 14 13 13 13 15 14 14 16 14 9 6 6 6 6 5 5 5 6
31 29 25 21 18 16 15 14 13 14 14 13 14 19 26 31 31 27 22 18 16 16 18 17 12 10 10 10 11 13 14 15 12 7 5 6 6 6 5 5 5 6
33 33 31 28 25 21 18 16 14 14 14 13 12 13 20 27 31 29 23 18 15 14 16 17 12 8 8 9 10 12 14 14 10 6 5 5 5 5 6 5 5 5
36 35 34 32 30 27 23 20 17 15 15 14 12 11 13 20 28 30 25 19 15 15 16 16 12 8 7 8 10 11 12 12 10 7 5 5 5 5 5 5 5 5
38 37 35 34 33 31 28 25 22 18 16 15 14 12 11 14 19 23 24 20 17 17 17 15 13 10 8 8 9 10 11 11 10 9 6 5 5 5 5 5 5 5
38 38 37 35 34 33 31 28 25 21 17 16 16 14 11 11 13 15 18 19 17 16 15 14 14 13 10 9 9 9 10 11 11 10 8 6 5 5 5 5 5 6
36 37 38 37 36 35 33 30 27 22 19 17 16 16 13 10 11 12 13 15 15 14 13 13 13 13 11 9 9 9 10 11 11 11 9 8 6 5 5 5 5 6
34 35 36 37 38 37 34 31 29 24 19 16 14 15 14 12 11 11 11 13 13 13 12 12 11 11 10 9 8 9 10 11 12 13 12 9 7 6 6 6 5 6
33 33 35 36 36 37 34 32 31 26 21 18 14 13 13 12 11 11 11 12 12 11 12 12 11 11 10 9 9 10 12 14 14 15 14 11 9 7 6 6 6 5
31 33 34 35 35 35 34 32 32 30 25 21 17 13 12 11 11 11 11 11 11 11 11 11 11 10 10 10 9 10 13 15 16 17 15 12 9 8 6 6 5 5
31 32 34 35 34 35 35 34 34 32 29 26 21 17 14 12 11 11 11 10 10 10 11 11 11 11 10 10 10 10 11 12 14 15 15 12 10 8 7 6 5 4
28 30 33 34 35 36 36 35 35 34 32 29 26 23 18 14 12 12 11 11 10 10 10 10 10 10 9 10 10 10 10 10 10 11 12 11 9 8 7 6 4 4
Wind_Speed
26 26 25 25 24 24 22 21 20 19 18 17 16 15 14 14 14 13 12 11 11 11 11 10 10 9 9 9 8 7 6 5 5 5 6 6 6 6 7 7 7 8
26 26 25 25 25 24 23 22 21 20 19 18 17 16 16 16 16 14 13 12 12 12 12 11 10 10 9 9 9 9 8 7 6 5 5 5 5 6 6 6 7 8
26 26 26 25 25 25 24 23 21 21 20 19 18 18 18 18 17 16 15 14 14 13 13 12 11 11 10 10 9 9 9 8 7 7 6 5 4 5 5 6 7 8
26 26 26 25 25 24 24 23 22 22 21 20 20 20 20 19 19 18 17 16 15 14 14 13 12 12 11 10 10 9 10 9 9 8 7 6 5 5 5 6 6 7
25 25 25 25 25 25 24 24 23 22 22 21 21 21 21 21 20 19 18 17 17 15 15 15 14 13 12 11 10 10 10 10 9 9 9 8 7 6 5 5 6 6
25 25 25 25 25 26 25 25 24 23 23 22 22 22 22 22 21 20 19 19 18 17 16 16 15 14 13 12 11 11 11 11 10 10 9 9 9 8 7 7 6 6
25 25 25 25 26 26 25 25 25 24 23 23 23 23 23 23 22 20 20 20 19 18 18 17 16 16 15 14 13 11 11 11 11 11 10 10 10 10 10 9 9 8
25 25 26 25 26 26 26 25 25 25 24 24 24 24 24 24 23 21 21 22 21 20 19 18 17 17 16 15 14 12 11 11 11 11 11 11 11 11 12 12 11 10
26 26 26 26 26 26 26 25 26 26 25 25 25 24 24 24 23 22 22 23 23 22 21 20 18 18 18 17 15 14 12 11 11 11 12 13 13 13 13 14 13 13
27 27 27 26 26 27 27 26 26 27 27 26 26 25 24 23 23 23 23 24 25 24 23 22 20 19 19 18 16 15 14 13 12 12 12 13 14 14 15 15 15 15
28 28 27 27 27 27 27 27 27 28 28 27 27 26 25 24 23 23 24 25 25 25 24 24 22 20 19 19 18 16 16 15 14 14 13 14 15 16 17 17 17 17
27 28 28 27 28 27 27 27 28 28 28 28 27 26 26 24 23 24 25 25 24 24 24 23 23 21 20 20 19 18 17 16 16 15 15 15 16 17 18 19 19 19
25 26 26 27 28 28 27 27 27 28 28 28 27 26 26 25 25 24 24 24 23 23 24 23 23 22 21 20 21 20 18 17 17 16 15 15 16 17 19 20 21 21
23 24 25 26 27 27 26 26 27 28 28 27 27 27 27 26 25 24 24 24 23 23 24 24 23 23 23 22 22 21 20 18 17 16 16 16 16 17 18 19 20 20
23 23 24 25 26 26 27 26 27 27 28 27 27 27 28 27 26 25 25 25 24 22 23 25 25 24 24 23 22 22 20 19 17 17 16 17 16 17 17 18 19 19
24 24 24 25 25 26 27 26 26 27 28 27 27 27 28 28 28 26 25 25 26 24 23 25 26 25 24 23 21 21 21 19 18 17 17 18 18 17 17 17 18 18
24 24 24 24 25 25 26 27 27 27 27 28 27 26 28 29 29 28 26 24 25 25 25 26 27 25 24 22 21 20 20 20 19 18 18 19 19 18 17 17 17 17
25 25 24 24 24 24 25 26 27 27 27 28 27 26 27 28 29 29 28 25 24 25 25 26 27 25 23 22 21 20 20 20 20 20 20 20 20 19 19 18 17 17
26 25 25 24 24 24 24 25 27 28 27 28 27 26 26 27 28 29 29 27 24 24 24 25 25 25 23 22 22 21 21 21 21 22 22 21 21 20 20 19 18 17
28 27 26 25 24 24 25 25 27 27 27 27 28 28 27 27 28 29 29 29 27 25 24 25 24 25 24 23 22 21 21 21 21 22 23 23 22 22 21 21 19 18
29 28 27 26 25 26 26 26 26 26 27 27 28 29 28 27 27 29 29 30 29 28 26 26 26 25 24 23 23 22 21 22 22 23 24 24 24 24 23 22 20 19
30 30 29 28 27 27 27 27 26 26 26 27 28 29 29 28 28 29 30 30 30 30 29 28 27 27 26 24 24 22 22 22 23 25 26 26 25 25 24 23 21 20
31 32 30 30 29 28 28 28 27 27 26 26 27 29 30 30 29 29 30 31 31 31 30 29 28 27 27 26 25 23 23 23 24 25 27 27 26 26 25 25 23 21
33 34 33 32 31 29 29 29 28 28 28 27 27 27 29 29 29 29 30 31 32 31 30 30 29 28 27 27 26 25 24 24 25 26 27 28 28 27 27 26 25 22
35 35 35 34 33 31 30 29 29 30 30 28 27 27 28 29 29 29 30 31 32 31 30 30 30 30 29 28 27 26 26 26 26 27 28 29 29 28 28 27 26 24
36 36 37 37 36 34 32 30 30 31 31 31 29 28 28 28 29 29 30 30 31 31 31 31 31 31 31 29 28 27 27 27 28 28 29 29 29 29 28 27 26 24
Wind_Direction
215 215 215 216 218 218 218 217 218 221 222 217 216 218 218 218 218 214 207 203 201 201 202 198 191 187 185 186 186 182 180 172 156 138 129 123 116 118 113 104 109 112
217 217 216 216 218 220 220 219 218 221 225 222 220 221 223 223 223 220 214 209 206 205 207 206 201 197 193 192 191 189 189 187 181 166 149 140 131 128 126 119 118 119
220 219 219 219 218 220 222 222 220 221 224 225 222 223 225 225 225 224 220 217 213 210 211 211 210 207 203 200 199 197 196 196 197 189 171 160 154 146 142 136 132 131
222 221 221 222 222 221 222 223 222 221 223 225 224 225 226 227 227 225 223 223 220 216 215 215 215 214 211 210 208 206 205 203 204 203 193 183 179 176 168 156 150 148
223 223 223 224 225 224 223 224 223 222 223 226 226 227 228 228 227 226 225 226 225 222 220 219 219 218 215 216 216 214 216 213 211 212 208 199 196 198 196 185 174 169
224 224 223 224 226 227 226 226 226 224 224 227 228 229 231 230 228 226 225 227 226 225 225 223 224 224 221 221 222 222 224 224 222 221 220 213 209 210 212 211 202 191
221 223 223 223 225 228 228 228 229 228 226 228 230 230 231 233 231 226 225 227 228 227 228 227 227 229 228 227 229 230 231 233 230 227 228 226 223 222 221 222 220 212
219 222 224 223 224 226 228 228 229 231 229 229 231 231 231 233 234 229 227 228 229 229 231 231 229 229 232 230 230 233 236 240 239 235 236 236 233 233 231 229 230 226
218 220 222 223 224 225 227 227 228 231 232 231 233 234 233 234 234 232 229 230 231 231 232 234 232 230 233 233 230 233 238 244 247 244 242 242 242 241 239 238 238 237
217 219 221 222 223 224 225 226 227 229 231 232 234 236 235 234 235 233 232 231 232 232 233 235 234 231 233 236 233 234 239 244 249 248 245 246 248 248 247 245 244 244
219 219 220 221 222 224 224 224 226 228 230 232 234 237 237 235 233 233 233 232 232 233 234 236 237 235 234 237 238 237 240 244 248 249 248 247 248 250 251 250 249 247
221 220 220 220 221 224 224 224 226 228 229 232 233 237 239 236 233 232 233 233 233 234 235 236 238 238 235 237 240 239 239 244 248 250 249 248 249 251 251 251 251 250
223 222 221 220 221 224 224 224 226 228 229 230 231 234 239 238 235 232 233 235 232 233 236 236 237 239 237 236 239 241 241 242 247 250 251 250 250 252 253 252 251 250
223 222 221 221 221 223 225 223 225 228 229 228 228 230 236 239 237 233 232 235 232 230 234 236 236 237 238 236 237 242 243 243 245 249 250 251 251 252 255 255 254 251
224 222 221 222 221 221 223 224 224 226 229 228 226 226 231 237 239 235 232 233 232 229 230 234 235 235 237 237 237 241 245 245 245 247 249 250 251 252 255 257 257 254
226 225 224 223 222 221 222 223 224 225 228 229 227 224 227 234 238 238 234 232 233 230 228 231 234 234 235 236 236 239 244 246 244 243 246 249 250 252 255 258 260 259
228 227 227 226 226 224 222 223 224 224 226 230 230 225 225 230 236 240 238 233 232 232 230 230 232 232 232 233 233 234 238 243 245 243 243 247 250 252 254 257 261 261
228 228 229 228 228 228 225 225 226 226 225 228 231 229 226 228 233 239 241 237 231 231 231 230 230 232 231 229 229 229 231 237 243 245 244 245 248 252 254 256 259 260
228 229 230 230 229 230 228 226 228 230 227 227 231 231 228 227 230 236 242 241 234 230 231 232 231 232 232 228 225 225 228 232 238 244 246 246 247 249 252 254 256 258
227 229 230 230 229 229 230 229 230 232 232 230 230 232 230 227 228 232 238 242 240 235 234 236 236 234 232 230 227 225 228 233 237 242 245 247 248 248 249 252 253 255
228 229 230 230 228 228 229 230 231 232 234 233 231 233 233 230 227 229 233 238 241 240 238 237 238 239 236 233 231 229 230 235 240 243 245 246 248 249 249 251 251 252
229 230 231 230 229 228 228 229 230 231 233 234 233 233 235 233 230 229 231 234 237 240 240 239 238 240 240 238 235 233 233 236 240 245 246 247 248 250 252 252 251 250
231 231 232 232 231 229 228 227 229 230 231 234 234 234 235 235 232 230 230 233 235 236 238 239 239 239 240 241 240 237 236 238 241 245 248 249 250 251 253 253 252 249
232 232 233 234 233 232 230 227 227 228 230 232 234 235 237 238 236 234 233 234 235 236 236 238 240 240 239 240 241 240 239 238 240 244 248 249 251 252 253 254 253 250
232 233 234 235 235 234 232 228 226 227 229 231 233 234 236 238 238 236 236 236 237 237 236 236 239 240 239 238 239 240 240 239 239 243 246 248 250 252 253 254 253 250
233 234 234 235 236 236 234 231 228 227 228 230 231 232 234 237 238 237 237 238 239 238 237 236 237 239 239 238 237 237 239 240 240 241 244 248 250 252 253 253 253 250